FW6260 Weather Reports


Display with metric or nautical units.
time (UTC)temp
F
wind
direction
speed
MPH
gust
MPH
rain 1hr
in
rain 24hr
in
rain mn
in
humidity
%
barometer
mb
20260504230100 61 140 0.0 1.0 0.00 0.00 0.00 71
20260504223030 63 159 1.0 7.0 0.00 0.00 0.00 61
20260504220100 60 181 1.0 7.0 0.00 0.00 0.00 67
20260504213031 60 0.0 1.0 0.00 0.00 0.00 69
20260504203032 61 144 0.0 1.0 0.00 0.00 0.00 65
20260504200122 63 146 0.0 1.0 0.00 0.00 0.00 61
20260504193031 64 159 0.0 1.0 0.00 0.00 0.00 59
20260504183032 68 163 0.0 2.0 0.00 0.00 0.00 52
20260504173033 71 147 0.0 2.0 0.00 0.00 0.00 46
20260504170103 72 151 0.0 2.0 0.00 0.00 0.00 42
20260504160105 74 111 0.0 2.0 0.00 0.00 0.00 38
20260504150106 75 151 1.0 4.0 0.00 0.00 0.00 37
20260504140107 76 183 1.0 6.0 0.00 0.00 0.00 34
20260504130107 75 136 1.0 4.0 0.00 0.00 0.00 34
20260504120108 74 113 1.0 6.0 0.00 0.00 0.00 38
20260504110109 73 128 1.0 7.0 0.00 0.00 0.00 39
20260504100150 71 147 1.0 3.0 0.00 0.00 0.00 41
20260504090130 68 134 1.0 3.0 0.00 0.00 0.00 44
20260504080112 65 174 0.0 3.0 0.00 0.00 0.00 49
20260504070233 61 114 0.0 1.0 0.00 0.00 0.00 61
20260504060113 55 151 0.0 2.0 0.00 0.00 0.00 72
20260504050113 52 142 0.0 3.0 0.00 0.00 0.00 74
20260504043104 52 134 0.0 1.0 0.00 0.00 0.00 76
20260504040115 51 120 0.0 1.0 0.00 0.00 0.00 76
20260504033045 51 154 0.0 1.0 0.00 0.00 0.00 76
20260504030116 52 128 0.0 1.0 0.00 0.00 0.00 74
20260504023107 54 0.0 0.0 0.00 0.00 0.00 70
20260504020016 56 153 0.0 2.0 0.00 0.00 0.00 65
20260504013107 58 165 1.0 3.0 0.00 0.00 0.00 59
20260504010017 58 237 2.0 6.0 0.00 0.00 0.00 60
20260504003048 58 253 2.0 4.0 0.00 0.00 0.00 61
20260504000017 59 232 2.0 6.0 0.00 0.00 0.00 61
20260503233049 60 270 2.0 7.0 0.00 0.00 0.00 60